Regional Weather Roundup
Issued by NWS

Home | Current Version | Previous Version | Graphics & Text | Print | Product List | Glossary On
Versions: 1 2 3 4 5 6 7 8 9 10 11 12 13 14 15 16 17 18 19 20 21 22 23 24 25 26 27 28
000
ASUS45 KTFX 220610
RWRMT
MONTANA REGIONAL WEATHER ROUNDUP
NATIONAL WEATHER SERVICE GREAT FALLS MT
1200 AM MDT FRI JUL 22 2016

NOTE: "FAIR" INDICATES FEW OR NO CLOUDS BELOW 12000 FEET WITH NO
SIGNIFICANT WEATHER AND/OR OBSTRUCTIONS TO VISIBILITY.

MTZ001>007-043-220700-
WEST OF THE DIVIDE

CITY           SKY/WX    TMP DP  RH WIND       PRES   REMARKS
KALISPELL      CLEAR     59  52  77 VRB7      30.00S
MISSOULA       CLEAR     69  44  40 CALM      30.01S
BUTTE          PTCLDY    67  37  33 SE7       30.15S
MULLAN PASS    CLEAR     65  37  35 CALM      30.19S
ANACONDA         N/A     68  39  34 S3        30.11S
DEER LODGE       N/A     72  39  30 CALM      30.11F
EUREKA           N/A     63  37  39 CALM      30.01S
HAMILTON         N/A     64  48  55 CALM      30.04R
LIBBY            N/A     64  45  48 CALM      30.01R
PLAINS           N/A     67  49  52 CALM      29.99S
RONAN            N/A     59  51  74 N1        30.05S
$$

MTZ008-052>055-220700-
SOUTHWEST MONTANA

CITY           SKY/WX    TMP DP  RH WIND       PRES   REMARKS
BOZEMAN        CLOUDY    69  44  40 NW9       30.05F
DILLON         CLEAR     64  40  41 SW13      30.10R
W YELLOWSTONE  CLOUDY    54  34  47 CALM      30.27F
ENNIS          CLEAR     70  28  21 S12       30.15F
THREE FORKS      N/A     70  -5   5 CALM      30.03F
TWIN BRIDGES     N/A     78  35  21 N10       30.05S
$$

MTZ009-010-012-014-046-048-049-054-220700-
EAST SLOPES AND CENTRAL MONTANA

CITY           SKY/WX    TMP DP  RH WIND       PRES   REMARKS
CUT BANK       CLEAR     62  40  44 NW6       30.07R
GREAT FALLS    CLOUDY    71  38  29 E8        30.07R
MALMSTROM AFB  CLOUDY    67  45  44 E3        30.06R
HELENA         PTCLDY    76  38  25 W8        30.02F
CHOTEAU          N/A     64  37  36 CALM      30.11R
CONRAD           N/A     57  47  69 W2        30.09R
$$

MTZ011-013-016-021-045-047-050-051-220700-
NORTH CENTRAL MONTANA

CITY           SKY/WX    TMP DP  RH WIND       PRES   REMARKS
HAVRE          PTCLDY    66  48  52 E9        30.02R
LEWISTOWN      CLEAR     65  49  56 E7        30.11S
N BAR RANCH      N/A     59  48  67 NW5       30.16F
CHINOOK          N/A     63  52  67 CALM      30.02R
$$

MTZ017>020-022>027-061-062-220700-
NORTHEAST MONTANA

CITY           SKY/WX    TMP DP  RH WIND       PRES   REMARKS
GLASGOW        PTCLDY    67  58  72 VRB7      29.99F
JORDAN           N/A     67  48  50 NE6       30.02F
SIDNEY         PTCLDY    66  55  67 NW5       30.03R
WOLF POINT     PTCLDY    65  58  78 E3        30.01R
PLENTYWOOD       N/A     64  55  72 NE7       30.03R
POPLAR           N/A     68  55  64 NE5       30.01S
SCOBEY           N/A     58  51  77 CALM      30.04R
$$

MTZ028>42-056>058-220700-
SOUTHCENTRAL AND SOUTHEAST MONTANA

CITY           SKY/WX    TMP DP  RH WIND       PRES   REMARKS
BAKER          CLEAR     70  56  61 S3        30.07R
BILLINGS       CLEAR     77  42  28 NE6       30.06S
LIVINGSTON     CLEAR     75  36  24 E14       30.09S
MILES CITY     CLEAR     78  51  38 NE9       30.03R
EKALAKA          N/A     74  51  44 NE1       30.07S
FORSYTH          N/A     73  50  43 E5        30.02F
LAUREL           N/A     77  41  27 N5        30.04S
ROUNDUP          N/A     71  48  43 CALM      29.99S
$$

REGIONAL REPORTS...DAKOTAS

CITY           SKY/WX    TMP DP  RH WIND       PRES   REMARKS
WILLISTON      CLEAR     65  58  78 VRB3      30.02S
MINOT          CLEAR     72  61  68 NW7       30.01R
DICKINSON      CLEAR     69  60  73 SE5       30.04R
BEACH            N/A     66  59  77 CALM      30.09S
CROSBY           N/A     59  59 100 S3        30.04S
WATFORD CITY     N/A     68  54  60 CALM      30.04S
BISMARCK       MOCLDY    73  65  75 SE3       30.01R
GRAND FORKS    CLEAR     68  64  87 SW7       29.92S
FARGO          CLEAR     74  67  78 SE8       29.94F
BUFFALO SD       N/A     74  53  48 W6        29.98R
RAPID CITY     CLEAR     77  62  59 SW8       30.05S
$$

REGIONAL REPORTS...WYOMING/IDAHO/WASHINGTON

CITY           SKY/WX    TMP DP  RH WIND       PRES   REMARKS
GILLETTE       PTCLDY    81  34  18 N7        30.14R
SHERIDAN       MOCLDY    74  47  38 S3        30.10F
BUFFALO WY     MOCLDY    80  42  25 CALM      30.20F
CODY           CLEAR     72  34  25 S6        30.15F
YELLOWSTONE LA   N/A     51  35  54 CALM      30.41S
IDAHO FALLS    CLOUDY    63  50  62 CALM      30.10S
SALMON         PTCLDY    64  45  48 CALM      30.01S
BOISE          CLEAR     79  41  25 SW5       29.93R
SPOKANE        PTCLDY    77  40  26 NE3       29.95F
$$

REGIONAL REPORTS...ALBERTA

CITY           SKY/WX    TMP DP  RH WIND       PRES   REMARKS
EDMONTON       LGT RAIN  59  54  82 W2        30.03S
CALGARY        CLEAR     61  52  72 N9        30.06R
LETHBRIDGE     CLEAR     59  46  63 S18       30.01S
MEDICINE HAT   CLEAR     64  50  59 E7        30.00S
WATERTON GATE    N/A     48  43  81 SW3         N/A
CARDSTON         N/A     55  43  62 S3          N/A
MILK RIVER       N/A     54  46  76 NW3         N/A
ONEFOUR          N/A     59  45  58 E12         N/A
$$

REGIONAL REPORTS...SASKATCHEWAN

CITY           SKY/WX    TMP DP  RH WIND       PRES   REMARKS
SWIFT CURRENT  CLEAR     59  52  77 SW3       30.04R
REGINA         PTCLDY    59  55  88 W2        30.00S
SASKATOON      CLEAR     61  59  94 W8        29.99R
CYPRESS HILLS    N/A     61  43  51 E7          N/A
VAL MARIE        N/A     54  50  87 NE6         N/A
ROCKGLEN         N/A     61  54  77 E3          N/A
$$




USA.gov is the U.S. government's official web portal to all federal, state and local government web resources and services.